Regional Weather Roundup
Issued by NWS Grand Forks, ND

Home | Current Version | Previous Version | Text Only | Print | Product List | Glossary On
Versions: 1 2 3 4 5 6 7 8 9 10 11 12 13 14 15 16 17 18 19 20 21 22 23 24 25 26 27 28 29 30 31 32 33 34 35 36 37 38 39 40 41 42 43 44 45 46 47 48 49 50
000
ASUS43 KFGF 012231
RWRFGF
PRAIRIE TO PINES  WEATHER ROUNDUP
NATIONAL WEATHER SERVICE EASTERN NORTH DAKOTA/GRAND FORKS ND
500 PM CDT SAT OCT 01 2016

 **SATELLITE DATA USED TO AUGMENT SKY COVER AT AUTOMATED STATIONS**
 *****  WEATHER ACROSS EASTERN NORTH DAKOTA  *****

CITY           SKY/WX    TMP DP  RH WIND       PRES   REMARKS
GRAND FORKS    PTSUNNY   72  54  53 SE12      30.06S
GRAND FRKS AFB MOSUNNY   69  55  60 SE10      30.06S
GRAND FRKS NWS   N/A     66 N/A N/A SE7         N/A
DEVILS LAKE    SUNNY     70  49  47 SE10      30.03S
FARGO          PTSUNNY   74  54  49 SE8       30.05F
WAHPETON ARPT  PTCLDY    72  46  40 SE10      30.06S
$$

 ***** WEATHER ACROSS CENTRAL AND WESTERN NORTH DAKOTA  *****

CITY           SKY/WX    TMP DP  RH WIND       PRES   REMARKS
BISMARCK       SUNNY     75  50  41 SE16      29.95S
MINOT          SUNNY     77  51  40 SE14      29.93F
JAMESTOWN      SUNNY     72  49  44 S12G20    30.01F
MINOT AFB      SUNNY     75  52  45 SE12      29.92F
GARRISON         N/A     75  52  44 S10       29.93F
WILLISTON      SUNNY     77  54  44 E9        29.90F
DICKINSON      SUNNY     77  50  38 SE8       29.90F
HETTINGER      SUNNY     82  51  34 SE6       29.93F
$$

 *****  OTHER AIRPORT OBSERVATIONS IN OUR AREA  *****

CITY           SKY/WX    TMP DP  RH WIND       PRES   REMARKS
WALHALLA       FAIR      66  63  88 SE12      30.06S
GRAFTON AIRPOR FAIR      68  54  60 SE12G17   30.08S
VALLEY CITY AR FAIR      72  54  53 S13G20    30.06S
CANDO          FAIR      72  46  40 S15G23    30.04S
CAVALIER APRT  FAIR      68  54  60 SE7       30.06F
GWINNER        FAIR      73  54  49 S13       30.04F
ROLLA            N/A     70  46  43 SE15G23   30.03S
 ***** THE ABOVE OBSERVATIONS ARE NON NWS ARE NOT QUALITY
       CONTROLLED AND MAY MIS-REPORT RAIN FOR SNOW...
$$

  *****  WEATHER ACROSS NORTHERN MINNESOTA  *****

CITY           SKY/WX    TMP DP  RH WIND       PRES   REMARKS
FLAG ISLAND    SUNNY     63  54  72 S3        30.12S
WARROAD        SUNNY     63  57  82 NE8       30.13S
ROSEAU         SUNNY     68  57  68 E5        30.11S
HALLOCK        CLOUDY    70  54  56 SE8       30.07S
THF RVR FALLS  CLOUDY    68  55  63 E12       30.10F
BAUDETTE       CLOUDY    65  55  70 CALM      30.13F
WASKISH        CLOUDY    61  55  82 CALM      30.13S
CROOKSTON      PTSUNNY   70  55  60 S5        30.08S
STEPHEN NDAWN    N/A     72  54  53 S8          N/A
GREENBUSH NDAW   N/A     70  54  56 SE7         N/A
$$
  *****  WEATHER ACROSS CENTRAL AND WEST MINNESOTA  *****

CITY           SKY/WX    TMP DP  RH WIND       PRES   REMARKS
FOSSTON        CLOUDY    72  54  53 SE5       30.10S
BEMIDJI        MOSUNNY   65  53  66 E7        30.12S
PARK RAPIDS    SUNNY     70  49  47 SE7       30.11S
ELBOW LAKE     FAIR      70  55  57 SE8       30.08S
WADENA         SUNNY     70  54  56 SE5       30.10S
DETROIT LAKES  CLOUDY    68  54  60 SE6       30.11F
MOORHEAD       MOSUNNY   72  54  53 SE9       30.07S
FERGUS FALLS   MOSUNNY   70  52  52 SE8       30.09S
MORRIS MN      SUNNY     75  52  43 SE9       30.06F
STAPLES        MOSUNNY   70  54  56 CALM      30.10S
$$
  *****  WEATHER ELSEWHERE ACROSS MINNESOTA  *****

CITY           SKY/WX    TMP DP  RH WIND       PRES   REMARKS
DULUTH         SUNNY     65  51  60 E9        30.14S
INTRNTL FALLS  CLOUDY    65  52  62 E5        30.14S
ELY            SUNNY     70  45  40 NE5       30.14S
CLOQUET        SUNNY     64  46  52 E7        30.14S
WHEATON        SUNNY     75  55  50 SE8       30.07F
BRAINERD       MOSUNNY   69  55  60 VRB3      30.11F
HIBBING        SUNNY     68  48  48 SE6       30.13F
ALEXANDRIA     SUNNY     71  53  52 SE10      30.10F
SAINT CLOUD    SUNNY     70  56  61 E6        30.09F
MINNEAPOLIS    MOSUNNY   74  55  51 NE10      30.07F
$$

  *****  WEATHER ACROSS SOUTH DAKOTA  *****

CITY           SKY/WX    TMP DP  RH WIND       PRES   REMARKS
SIOUX FALLS    PTSUNNY   69  54  58 SE7       30.07F
BROOKINGS      MOSUNNY   69  54  58 SE8       30.07S
WATERTOWN      SUNNY     67  54  63 S7        30.06S
HURON          SUNNY     74  50  42 S10G20    30.02S
SISSETON         N/A     75  53  46 SE9       30.04S
ABERDEEN       MOSUNNY   76  49  38 S10       30.02S
MITCHELL       MOSUNNY   74  49  41 SE14      30.04S
PIERRE         SUNNY     80  49  33 SE18      29.92F
MOBRIDGE       SUNNY     79  47  32 SE20      29.93F
RAPID CITY     MOSUNNY   79  49  34 SE10      29.93F
$$

  *****  SOME WEATHER IN NEARBY STATES *****

CITY           SKY/WX    TMP DP  RH WIND       PRES   REMARKS
GLASGOW MT     SUNNY     82  54  37 SE7       29.83F
GREAT FALLS MT CLOUDY    67  35  30 W28G37    29.88R
CHEYENNE WY    CLOUDY    75  38  26 SW10      30.10S
SCOTTSBLUFF NE SUNNY     82  45  27 S7        29.98F
OMAHA NE       CLOUDY    67  55  65 CALM      30.06F
DES MOINES IA  CLOUDY    66  58  75 SW3       30.04S
DAVENPORT IA   CLOUDY    69  57  65 VRB3      30.01R
CHICAGO IL     LGT RAIN  60  58  92 N10       29.97S FOG
EAU CLAIRE WI  SUNNY     69  51  52 N6        30.07S
LA CROSSE WI   MOSUNNY   71  54  54 E7        30.05S
$$

  *****  SOME NATIONAL WEATHER *****

CITY           SKY/WX    TMP DP  RH WIND       PRES   REMARKS
LA GUARDIA NY  CLOUDY    63  58  83 NE12      30.15S
RALEIGH NC     MOSUNNY   80  61  52 SE7       30.02F
ATLANTA GA     MOSUNNY   78  50  37 NW5       30.04F
NEW ORLEANS LA MOSUNNY   85  57  38 NE7       30.01F
OKLAHOMA CITY  PTSUNNY   78  51  38 VRB6      30.02F
ALBUQUERQUE NM MOSUNNY   79  41  25 W9        30.13F
SALT LAKE CITY PTSUNNY   78  43  28 S17G23    29.97S
LOS ANGELES CA MOSUNNY   75  62  64 W13       29.93F
BOISE ID       SUNNY     71  25  17 NW20      30.00S
SEATTLE WA     CLOUDY    60  46  59 S16G24    29.97R
$$

*** WEATHER ACROSS MANITOBA...SASKATCHEWAN AND ONTARIO ***
                ***ONTARIO***

CITY           SKY/WX    TMP DP  RH WIND       PRES   REMARKS
GERALDTON      MOSUNNY   68  43  40 NE6       30.17S
THUNDER BAY    MOSUNNY   68  50  52 E6        30.14F
SIOUX LOOKOUT  PTSUNNY   66  50  55 VRB2      30.17S
TORONTO        CLOUDY    59  57  94 E8        30.07F
BIG TROUT LK   SUNNY     63  52  67 S3        30.16S
PICKLE LAKE    PTSUNNY   66  45  45 W3        30.18F
DRYDEN         CLOUDY    64  52  63 CALM      30.16F
KENORA         MOSUNNY   66  46  48 SE8       30.15S
$$
                *** MANITOBA***

CITY           SKY/WX    TMP DP  RH WIND       PRES   REMARKS
BRANDON        MOSUNNY   73  48  40 SE16G24   30.00S
DAUPHIN        SUNNY     73  54  49 SE13      29.99S
ISLAND LAKE    PTSUNNY   63  54  72 SE8       30.12S
PILOT MOUND      N/A     72  43  35 SE18G24     N/A
THE PAS        CLOUDY    54  52  94 NE7       30.08S
THOMPSON       CLOUDY    45  43  93 NE9       30.20S
WINNIPEG       PTSUNNY   70  50  49 S10       30.07F
LYNN LAKE      CLOUDY    41  39  93 NE15G23   30.25F
CHURCHILL      CLOUDY    41  37  87 NE10      30.43R
GILLAM         CLOUDY    45  37  76 NE15G23   30.26R
$$
                ***SASKATCHEWAN***

CITY           SKY/WX    TMP DP  RH WIND       PRES   REMARKS
ESTEVAN        SUNNY     72  52  49 SE9       29.93F
KINDERSLEY     CLOUDY    59  52  77 E10       29.85S
LLOYDMINSTER   LGT RAIN  50  48  93 E16G23    29.88S FOG
PRINCE ALBERT  CLOUDY    54  50  87 E13       29.99F
REGINA         MOSUNNY   73  50  43 SE18      29.91S
YORKTON        SUNNY     72  50  46 E16       29.95F HAZE
N. BATTLEFORD  CLOUDY    54  54 100 E16G24    29.93F
LA RONGE       CLOUDY    48  45  87 NE15G21   30.11F
SASKATOON      PTSUNNY   61  54  77 E16       29.92F
SWIFT CURRENT  SUNNY     79  52  38 SE20G26   29.81F
$$
NOTE: THESE ARE AUTOMATED STATIONS WITH LIMITED QUALITY CONTROL
      "FAIR" INDICATES FEW OR NO CLOUDS BELOW 12,000 FEET WITH NO
      SIGNIFICANT WEATHER AND/OR OBSTRUCTIONS TO VISIBILITY.
      SKY/WX - SKY CONDITION AND SIGNIFICANT WEATHER.
      TMP - AIR TEMPERATURE.    DP   - DEWPOINT TEMPERATURE.
      RH  - RELATIVE HUMIDITY.  PRES - PRESSURE.
      HX  - HEAT INDEX.         WCI  - WIND CHILL INDEX.
$




USA.gov is the U.S. government's official web portal to all federal, state and local government web resources and services.